Total_Precipitation_Accumulation
0.01 0.07 0.11 0.17 0.29 0.13 0.00 0.00 0.00 0.00 0.00 0.00 0.00 0.00 0.00 0.00 0.01 0.13 0.04 0.00 0.00 0.00 0.00 0.01 0.02 0.01 0.02 0.04 0.08 0.10 0.09 0.06 0.09 0.12 0.12 0.14 0.10 0.07 0.04 0.02 0.02 0.01 0.03 0.07 0.07 0.08 0.08 0.12 0.16
0.02 0.05 0.11 0.28 0.21 0.01 0.00 0.00 0.00 0.00 0.00 0.00 0.00 0.00 0.00 0.00 0.00 0.00 0.00 0.01 0.00 0.00 0.00 0.01 0.01 0.02 0.04 0.07 0.12 0.14 0.12 0.09 0.11 0.12 0.12 0.12 0.11 0.06 0.07 0.09 0.03 0.02 0.02 0.03 0.04 0.04 0.07 0.13 0.18
0.01 0.03 0.15 0.22 0.06 0.00 0.00 0.00 0.00 0.00 0.00 0.00 0.00 0.00 0.00 0.00 0.00 0.00 0.01 0.01 0.00 0.00 0.01 0.02 0.05 0.04 0.06 0.12 0.24 0.24 0.19 0.14 0.07 0.07 0.07 0.07 0.06 0.06 0.13 0.06 0.02 0.02 0.03 0.03 0.04 0.04 0.05 0.12 0.18
0.02 0.06 0.24 0.12 0.01 0.00 0.00 0.00 0.00 0.00 0.00 0.00 0.00 0.00 0.00 0.00 0.00 0.00 0.00 0.00 0.00 0.00 0.02 0.08 0.17 0.13 0.13 0.19 0.34 0.29 0.22 0.20 0.09 0.06 0.05 0.05 0.03 0.06 0.08 0.05 0.05 0.02 0.02 0.03 0.03 0.05 0.05 0.11 0.16
0.05 0.14 0.35 0.46 0.04 0.00 0.00 0.00 0.00 0.00 0.00 0.00 0.00 0.00 0.00 0.00 0.00 0.00 0.00 0.00 0.00 0.01 0.02 0.10 0.26 0.21 0.17 0.21 0.32 0.28 0.24 0.24 0.12 0.06 0.06 0.05 0.04 0.07 0.08 0.11 0.06 0.02 0.01 0.02 0.02 0.02 0.04 0.07 0.12
0.10 0.25 0.49 0.58 0.06 0.00 0.00 0.00 0.00 0.00 0.00 0.00 0.00 0.00 0.00 0.00 0.00 0.00 0.00 0.00 0.01 0.02 0.02 0.06 0.18 0.17 0.16 0.23 0.32 0.35 0.28 0.23 0.11 0.07 0.07 0.05 0.06 0.08 0.10 0.10 0.05 0.02 0.01 0.02 0.02 0.01 0.01 0.03 0.08
0.10 0.26 0.32 0.20 0.04 0.01 0.00 0.00 0.00 0.00 0.00 0.00 0.00 0.00 0.00 0.00 0.00 0.00 0.01 0.04 0.06 0.05 0.04 0.05 0.06 0.06 0.11 0.22 0.26 0.42 0.45 0.28 0.13 0.10 0.08 0.07 0.05 0.06 0.07 0.05 0.02 0.01 0.01 0.02 0.01 0.00 0.00 0.02 0.05
0.10 0.16 0.22 0.18 0.09 0.06 0.02 0.00 0.00 0.00 0.00 0.00 0.00 0.00 0.00 0.00 0.00 0.00 0.03 0.10 0.10 0.05 0.02 0.02 0.02 0.03 0.09 0.15 0.25 0.47 0.60 0.46 0.21 0.13 0.10 0.09 0.05 0.04 0.04 0.02 0.01 0.01 0.00 0.00 0.00 0.00 0.00 0.01 0.03
0.10 0.12 0.16 0.18 0.15 0.14 0.06 0.01 0.00 0.00 0.00 0.00 0.00 0.00 0.00 0.00 0.00 0.00 0.03 0.07 0.12 0.07 0.03 0.01 0.01 0.02 0.07 0.14 0.23 0.39 0.56 0.52 0.26 0.15 0.13 0.09 0.05 0.06 0.02 0.00 0.00 0.00 0.00 0.00 0.00 0.00 0.00 0.00 0.02
0.14 0.13 0.14 0.21 0.21 0.17 0.10 0.02 0.02 0.01 0.01 0.01 0.00 0.00 0.00 0.00 0.00 0.00 0.00 0.01 0.04 0.04 0.04 0.03 0.02 0.02 0.03 0.07 0.21 0.29 0.32 0.31 0.19 0.17 0.09 0.10 0.16 0.11 0.02 0.00 0.00 0.00 0.00 0.00 0.01 0.00 0.00 0.00 0.00
0.13 0.11 0.10 0.15 0.17 0.10 0.07 0.05 0.03 0.03 0.02 0.03 0.01 0.01 0.01 0.00 0.00 0.00 0.00 0.00 0.00 0.00 0.01 0.01 0.01 0.01 0.02 0.06 0.15 0.22 0.32 0.32 0.34 0.28 0.14 0.12 0.13 0.06 0.00 0.00 0.00 0.01 0.00 0.00 0.01 0.01 0.00 0.00 0.00
0.10 0.05 0.06 0.08 0.07 0.09 0.06 0.05 0.05 0.05 0.05 0.04 0.02 0.02 0.02 0.02 0.01 0.01 0.00 0.00 0.00 0.00 0.00 0.00 0.00 0.01 0.01 0.03 0.10 0.17 0.25 0.34 0.35 0.20 0.05 0.04 0.07 0.05 0.01 0.00 0.01 0.01 0.01 0.00 0.00 0.00 0.00 0.00 0.00
0.10 0.10 0.06 0.06 0.09 0.11 0.06 0.03 0.05 0.08 0.06 0.03 0.02 0.04 0.06 0.07 0.07 0.05 0.03 0.02 0.01 0.01 0.01 0.00 0.00 0.00 0.02 0.03 0.07 0.10 0.21 0.29 0.22 0.17 0.08 0.06 0.05 0.05 0.03 0.01 0.01 0.01 0.01 0.00 0.00 0.00 0.00 0.00 0.00
0.05 0.11 0.11 0.09 0.09 0.07 0.06 0.06 0.09 0.12 0.09 0.06 0.04 0.06 0.10 0.12 0.13 0.12 0.09 0.07 0.05 0.04 0.03 0.02 0.01 0.01 0.01 0.02 0.03 0.07 0.12 0.17 0.18 0.13 0.08 0.10 0.08 0.05 0.04 0.01 0.01 0.02 0.01 0.01 0.00 0.00 0.00 0.00 0.00
0.05 0.06 0.04 0.05 0.05 0.05 0.06 0.08 0.12 0.14 0.12 0.09 0.07 0.08 0.12 0.16 0.16 0.18 0.16 0.10 0.08 0.08 0.06 0.06 0.05 0.04 0.05 0.05 0.06 0.06 0.06 0.08 0.10 0.13 0.13 0.16 0.15 0.11 0.08 0.03 0.02 0.02 0.02 0.03 0.03 0.01 0.00 0.00 0.01
0.02 0.02 0.02 0.06 0.09 0.11 0.09 0.08 0.16 0.18 0.15 0.11 0.08 0.06 0.07 0.10 0.14 0.19 0.20 0.15 0.12 0.10 0.07 0.07 0.08 0.07 0.07 0.06 0.06 0.05 0.05 0.08 0.14 0.17 0.13 0.14 0.18 0.18 0.13 0.08 0.06 0.06 0.06 0.08 0.08 0.04 0.02 0.01 0.01
0.01 0.02 0.04 0.06 0.09 0.14 0.16 0.17 0.19 0.15 0.14 0.11 0.07 0.05 0.05 0.07 0.11 0.16 0.18 0.18 0.16 0.13 0.10 0.10 0.10 0.10 0.09 0.09 0.10 0.10 0.11 0.21 0.31 0.22 0.14 0.23 0.30 0.26 0.23 0.24 0.20 0.16 0.16 0.11 0.09 0.07 0.06 0.04 0.03
0.06 0.08 0.10 0.10 0.09 0.08 0.11 0.15 0.14 0.08 0.05 0.05 0.05 0.04 0.03 0.04 0.08 0.14 0.17 0.17 0.17 0.16 0.14 0.14 0.14 0.13 0.11 0.15 0.21 0.27 0.25 0.29 0.41 0.41 0.36 0.43 0.50 0.46 0.45 0.41 0.31 0.25 0.26 0.20 0.17 0.19 0.13 0.10 0.06
0.12 0.11 0.08 0.06 0.04 0.04 0.04 0.05 0.07 0.05 0.04 0.04 0.05 0.04 0.03 0.03 0.05 0.07 0.11 0.13 0.14 0.13 0.14 0.17 0.19 0.19 0.18 0.19 0.26 0.30 0.34 0.39 0.50 0.48 0.51 0.59 0.64 0.60 0.61 0.62 0.52 0.39 0.34 0.31 0.32 0.41 0.35 0.24 0.12
0.03 0.01 0.01 0.01 0.01 0.01 0.01 0.03 0.05 0.05 0.05 0.05 0.05 0.04 0.03 0.03 0.03 0.04 0.06 0.08 0.09 0.08 0.10 0.14 0.21 0.29 0.31 0.33 0.42 0.51 0.63 0.64 0.66 0.66 0.66 0.66 0.64 0.61 0.63 0.72 0.73 0.59 0.52 0.54 0.49 0.54 0.61 0.52 0.31
0.01 0.01 0.01 0.01 0.00 0.00 0.01 0.02 0.04 0.06 0.07 0.07 0.06 0.05 0.04 0.02 0.03 0.03 0.03 0.05 0.07 0.06 0.07 0.13 0.26 0.44 0.61 0.71 0.91 1.12 1.31 1.32 1.15 1.02 0.94 0.81 0.76 0.74 0.69 0.72 0.73 0.63 0.59 0.61 0.68 0.74 0.83 0.74 0.61
0.00 0.00 0.01 0.00 0.00 0.00 0.00 0.01 0.03 0.09 0.13 0.14 0.12 0.11 0.09 0.08 0.07 0.06 0.07 0.06 0.07 0.09 0.16 0.30 0.53 0.82 1.06 1.20 1.38 1.57 1.65 1.62 1.47 1.34 1.17 0.96 0.85 0.74 0.63 0.65 0.70 0.73 0.78 0.79 0.85 0.78 0.85 0.87 0.72
0.00 0.00 0.00 0.00 0.00 0.00 0.00 0.01 0.07 0.16 0.24 0.26 0.27 0.25 0.23 0.19 0.14 0.15 0.18 0.18 0.24 0.33 0.51 0.76 1.02 1.27 1.42 1.45 1.54 1.72 1.85 1.95 1.91 1.72 1.46 1.22 1.05 0.91 0.73 0.66 0.65 0.62 0.64 0.69 0.71 0.66 0.73 0.78 0.82
0.01 0.02 0.02 0.02 0.02 0.01 0.01 0.04 0.15 0.24 0.30 0.35 0.36 0.31 0.27 0.23 0.21 0.28 0.38 0.46 0.60 0.70 0.87 1.08 1.23 1.38 1.37 1.36 1.41 1.53 1.69 1.81 1.81 1.78 1.69 1.48 1.24 1.03 0.84 0.71 0.69 0.66 0.58 0.60 0.61 0.59 0.67 0.67 0.69
0.03 0.07 0.07 0.05 0.05 0.04 0.06 0.18 0.26 0.26 0.26 0.31 0.32 0.30 0.29 0.26 0.31 0.45 0.58 0.69 0.81 0.91 1.03 1.07 1.08 1.13 1.16 1.15 1.17 1.22 1.24 1.26 1.28 1.32 1.20 1.05 0.90 0.80 0.75 0.65 0.62 0.59 0.52 0.56 0.47 0.35 0.38 0.46 0.52
0.01 0.04 0.10 0.09 0.07 0.10 0.15 0.36 0.39 0.30 0.24 0.22 0.23 0.26 0.34 0.45 0.53 0.62 0.65 0.71 0.77 0.88 0.98 1.00 0.97 0.95 0.92 0.85 0.83 0.83 0.85 0.84 0.81 0.76 0.68 0.60 0.54 0.49 0.45 0.41 0.36 0.32 0.28 0.35 0.40 0.29 0.24 0.22 0.28
0.01 0.03 0.09 0.18 0.13 0.12 0.20 0.44 0.43 0.28 0.21 0.20 0.20 0.24 0.38 0.57 0.75 0.84 0.80 0.74 0.65 0.66 0.76 0.81 0.77 0.73 0.69 0.65 0.66 0.68 0.63 0.58 0.53 0.47 0.42 0.39 0.34 0.30 0.28 0.24 0.21 0.19 0.17 0.19 0.23 0.30 0.29 0.18 0.15
0.02 0.05 0.13 0.23 0.22 0.23 0.30 0.45 0.40 0.29 0.24 0.21 0.24 0.32 0.50 0.71 0.84 1.03 1.15 1.03 0.73 0.53 0.51 0.50 0.52 0.55 0.57 0.58 0.59 0.57 0.48 0.42 0.39 0.36 0.34 0.33 0.32 0.29 0.27 0.20 0.15 0.14 0.14 0.19 0.22 0.19 0.20 0.18 0.17
0.04 0.10 0.16 0.20 0.23 0.34 0.55 0.68 0.57 0.46 0.40 0.37 0.39 0.45 0.54 0.79 1.06 1.16 1.18 0.97 0.82 0.60 0.50 0.46 0.46 0.48 0.54 0.52 0.54 0.48 0.40 0.34 0.31 0.28 0.26 0.24 0.22 0.22 0.20 0.18 0.17 0.16 0.15 0.16 0.14 0.11 0.09 0.08 0.09
0.11 0.19 0.27 0.35 0.39 0.41 0.53 0.64 0.52 0.54 0.59 0.53 0.54 0.63 0.66 0.71 0.75 0.77 0.85 0.82 0.78 0.66 0.58 0.62 0.66 0.64 0.56 0.50 0.47 0.43 0.37 0.33 0.33 0.31 0.27 0.24 0.21 0.21 0.19 0.19 0.21 0.21 0.20 0.17 0.16 0.14 0.09 0.07 0.06